Location: ??????????
(42.1626°N, 44.1160°E)
Time: 20:27:13
(UTC+00:00)

SJ 16-02 - Pass Details

Date: 03 March 2021
Orbit: 605 x 617 km, 75.0° (Epoch: 18 April)

Event Time Altitude Azimuth Distance (km) Brightness Sun altitude
Rises 16:21:18 0° 359° (N) 2,882 4.9 -16.6°
Reaches altitude 10° 16:24:39 10° 26° (NNE) 1,975 3.7 -17.2°
Enters shadow 16:25:26 12° 36° (NE) 1,849 3.5 -17.3°
